Quillayute, WA
on Tuesday, January 8, 2013

Tuesday
Previous Day Next Day
Daily Summary
 ActualAverageRecord
Temperature
Mean Temperature °F / °C 41°F / 5°C  
Max Temperature 50°F / 10°C 46°F / 8°C 60°F / 15°C (2003)
Min Temperature 39°F / 4°C 36°F / 2°C 19°F / -7°C (1977)
Degree Days
Heating Degree Days 20 24  
Month to date heating degree days 192  
Since 1 July heating degree days 2670  
Cooling Degree Days 0 0  
Month to date cooling degree days 0  
Year to date cooling degree days 0  
Moisture
Dew Point 44°F / 7°C   
Average Humidity 96    
Maximum Humidity 100    
Minimum Humidity 89    
Precipitation
Precipitation 1.60 in / 40.64 cm 0.49 in / 12.45 cm 1.73 in / 4.39 cm (1991)
Month to date precipitation 3.78  
Year to date precipitation 3.78  
Wind
Wind Speed 11 mph / 18 km/h   
Max Wind Speed 28 mph / 45 km/h   
Max Gust Speed 39 mph / 63 km/h   
Visibility 2 miles / 3 kilometers   
Events Fog , Rain   

Key: T is trace of precipitation, MM is missing value
Source: NWS Daily Summary
Time(PST)TemperatureDew PointHumidity Pressure Visibility Wind DirectionWind SpeedGust SpeedPrecipitationEvents Conditions
12:17 AM 39.2°F / 4.0°C 39.2°F / 4.0°C 100% 30.14 in / 1020.5 hPa 1.8 miles / 2.8 kilometers Calm Calm - N/A   Mostly Cloudy
12:30 AM 39.2°F / 4.0°C 39.2°F / 4.0°C 100% 30.13 in / 1020.2 hPa 3.0 miles / 4.8 kilometers Calm Calm - N/A   Mostly Cloudy
12:51 AM 39.2°F / 4.0°C 39.2°F / 4.0°C 100% 30.13 in / 1020.2 hPa 1.8 miles / 2.8 kilometers Calm Calm - N/A   Overcast
12:53 AM 39.9°F / 4.4°C 39.0°F / 3.9°C 97% 30.13 in / 1020.3 hPa 1.2 miles / 2.0 kilometers Calm Calm - N/A   Overcast
1:02 AM 39.2°F / 4.0°C 39.2°F / 4.0°C 100% 30.12 in / 1019.9 hPa 2.0 miles / 3.2 kilometers Calm Calm - N/A   Overcast
1:10 AM 39.2°F / 4.0°C 39.2°F / 4.0°C 100% 30.12 in / 1019.9 hPa 3.0 miles / 4.8 kilometers Calm Calm - N/A   Mostly Cloudy
1:23 AM 39.2°F / 4.0°C 39.2°F / 4.0°C 100% 30.12 in / 1019.9 hPa 2.5 miles / 4.0 kilometers Calm Calm - N/A   Mostly Cloudy
1:30 AM 39.2°F / 4.0°C 39.2°F / 4.0°C 100% 30.13 in / 1020.2 hPa 3.0 miles / 4.8 kilometers Calm Calm - N/A   Mostly Cloudy
1:53 AM 39.9°F / 4.4°C 39.9°F / 4.4°C 100% 30.13 in / 1020.3 hPa 3.0 miles / 4.8 kilometers Calm Calm - N/A   Mostly Cloudy
2:53 AM 42.1°F / 5.6°C 39.9°F / 4.4°C 92% 30.12 in / 1019.8 hPa 5.0 miles / 8.0 kilometers ESE 4.6 mph / 7.4 km/h - N/A   Overcast
3:53 AM 42.1°F / 5.6°C 39.9°F / 4.4°C 92% 30.10 in / 1019.2 hPa 3.0 miles / 4.8 kilometers East 3.5 mph / 5.6 km/h - 0.01 in / 0.3 cm Rain Light Rain
4:53 AM 42.1°F / 5.6°C 39.9°F / 4.4°C 92% 30.06 in / 1017.9 hPa 4.0 miles / 6.4 kilometers East 6.9 mph / 11.1 km/h - 0.01 in / 0.3 cm Rain Light Rain
5:21 AM 41.0°F / 5.0°C 39.2°F / 4.0°C 93% 30.04 in / 1017.2 hPa 3.0 miles / 4.8 kilometers ESE 5.8 mph / 9.3 km/h - 0.02 in / 0.5 cm Rain Light Rain
5:45 AM 41.0°F / 5.0°C 39.2°F / 4.0°C 93% 30.02 in / 1016.5 hPa 2.5 miles / 4.0 kilometers ESE 5.8 mph / 9.3 km/h - 0.04 in / 1.0 cm Rain Light Rain
5:53 AM 41.0°F / 5.0°C 39.9°F / 4.4°C 96% 30.02 in / 1016.4 hPa 2.5 miles / 4.0 kilometers East 6.9 mph / 11.1 km/h - 0.05 in / 1.3 cm Rain Light Rain
6:05 AM 41.0°F / 5.0°C 39.2°F / 4.0°C 93% 30.01 in / 1016.1 hPa 3.0 miles / 4.8 kilometers East 6.9 mph / 11.1 km/h - 0.01 in / 0.3 cm Rain Light Rain
6:16 AM 41.0°F / 5.0°C 39.2°F / 4.0°C 93% 30.00 in / 1015.8 hPa 3.0 miles / 4.8 kilometers East 9.2 mph / 14.8 km/h - 0.02 in / 0.5 cm Rain Light Rain
6:53 AM 39.9°F / 4.4°C 39.0°F / 3.9°C 97% 29.97 in / 1014.9 hPa 2.0 miles / 3.2 kilometers ENE 6.9 mph / 11.1 km/h - 0.06 in / 1.5 cm Rain Light Rain
7:08 AM 39.2°F / 4.0°C 39.2°F / 4.0°C 100% 29.96 in / 1014.4 hPa 3.0 miles / 4.8 kilometers ENE 5.8 mph / 9.3 km/h - 0.02 in / 0.5 cm Rain Light Rain
7:20 AM 39.2°F / 4.0°C 39.2°F / 4.0°C 100% 29.95 in / 1014.1 hPa 2.0 miles / 3.2 kilometers ENE 5.8 mph / 9.3 km/h - 0.03 in / 0.8 cm Rain Light Rain
7:44 AM 39.2°F / 4.0°C 37.4°F / 3.0°C 93% 29.94 in / 1013.8 hPa 2.5 miles / 4.0 kilometers ENE 5.8 mph / 9.3 km/h - 0.04 in / 1.0 cm Rain Light Rain
7:53 AM 39.9°F / 4.4°C 37.9°F / 3.3°C 93% 29.94 in / 1013.8 hPa 2.5 miles / 4.0 kilometers ENE 5.8 mph / 9.3 km/h - 0.05 in / 1.3 cm Rain Light Rain
8:49 AM 39.2°F / 4.0°C 37.4°F / 3.0°C 93% 29.92 in / 1013.1 hPa 1.2 miles / 2.0 kilometers East 5.8 mph / 9.3 km/h - 0.07 in / 1.8 cm Rain Light Rain
8:50 AM 39.0°F / 3.9°C 37.9°F / 3.3°C 96% 29.92 in / 1013.1 hPa 1.2 miles / 2.0 kilometers East 5.8 mph / 9.3 km/h - 0.07 in / 1.8 cm Rain Light Rain
9:10 AM 39.2°F / 4.0°C 39.2°F / 4.0°C 100% 29.91 in / 1012.8 hPa 0.8 miles / 1.2 kilometers East 6.9 mph / 11.1 km/h - 0.02 in / 0.5 cm Rain Light Rain
9:18 AM 39.2°F / 4.0°C 39.2°F / 4.0°C 100% 29.91 in / 1012.8 hPa 0.8 miles / 1.2 kilometers East 6.9 mph / 11.1 km/h - 0.03 in / 0.8 cm Rain Light Rain
9:28 AM 39.2°F / 4.0°C 39.2°F / 4.0°C 100% 29.90 in / 1012.4 hPa 1.0 miles / 1.6 kilometers East 8.1 mph / 13.0 km/h - 0.04 in / 1.0 cm Rain Light Rain
9:37 AM 39.2°F / 4.0°C 39.2°F / 4.0°C 100% 29.89 in / 1012.1 hPa 0.8 miles / 1.2 kilometers East 8.1 mph / 13.0 km/h - 0.05 in / 1.3 cm Rain Light Rain
9:53 AM 39.9°F / 4.4°C 39.9°F / 4.4°C 100% 29.89 in / 1012.1 hPa 0.8 miles / 1.2 kilometers East 4.6 mph / 7.4 km/h - 0.07 in / 1.8 cm Rain Light Rain
10:00 AM 41.0°F / 5.0°C 39.2°F / 4.0°C 93% 29.88 in / 1011.7 hPa 1.0 miles / 1.6 kilometers East 6.9 mph / 11.1 km/h - 0.00 in / 0.0 cm Rain Light Rain
10:07 AM 41.0°F / 5.0°C 39.2°F / 4.0°C 93% 29.88 in / 1011.7 hPa 0.8 miles / 1.2 kilometers East 3.5 mph / 5.6 km/h - N/A Rain Light Rain
10:53 AM 46.0°F / 7.8°C 46.0°F / 7.8°C 100% 29.86 in / 1011.1 hPa 0.5 miles / 0.8 kilometers South 8.1 mph / 13.0 km/h 16.1 mph / 25.9 km/h 0.11 in / 2.8 cm Fog , Rain Rain
11:03 AM 46.4°F / 8.0°C 46.4°F / 8.0°C 100% 29.85 in / 1010.7 hPa 0.5 miles / 0.8 kilometers South 10.4 mph / 16.7 km/h 25.3 mph / 40.7 km/h 0.06 in / 1.5 cm Fog , Rain Heavy Rain
11:24 AM 46.4°F / 8.0°C 46.4°F / 8.0°C 100% 29.84 in / 1010.4 hPa 0.8 miles / 1.2 kilometers South 9.2 mph / 14.8 km/h 18.4 mph / 29.6 km/h 0.20 in / 5.1 cm Rain Rain
11:53 AM 46.9°F / 8.3°C 46.9°F / 8.3°C 100% 29.83 in / 1010.2 hPa 1.0 miles / 1.6 kilometers South 10.4 mph / 16.7 km/h 18.4 mph / 29.6 km/h 0.36 in / 9.1 cm Rain Light Rain
11:59 AM 46.4°F / 8.0°C 46.4°F / 8.0°C 100% 29.83 in / 1010.0 hPa 1.8 miles / 2.8 kilometers South 9.2 mph / 14.8 km/h 18.4 mph / 29.6 km/h 0.01 in / 0.3 cm Rain Light Rain
12:05 PM 48.2°F / 9.0°C 46.4°F / 8.0°C 93% 29.83 in / 1010.0 hPa 0.8 miles / 1.2 kilometers South 9.2 mph / 14.8 km/h 19.6 mph / 31.5 km/h 0.01 in / 0.3 cm Rain Light Rain
12:21 PM 48.2°F / 9.0°C 48.2°F / 9.0°C 100% 29.82 in / 1009.7 hPa 0.2 miles / 0.4 kilometers South 13.8 mph / 22.2 km/h 21.9 mph / 35.2 km/h 0.02 in / 0.5 cm Fog , Rain Light Rain
12:32 PM 48.2°F / 9.0°C 48.2°F / 9.0°C 100% 29.82 in / 1009.7 hPa 0.5 miles / 0.8 kilometers SSW 15.0 mph / 24.1 km/h 23.0 mph / 37.0 km/h 0.02 in / 0.5 cm Fog , Rain Light Rain
12:53 PM 48.9°F / 9.4°C 48.9°F / 9.4°C 100% 29.81 in / 1009.5 hPa 0.5 miles / 0.8 kilometers South 15.0 mph / 24.1 km/h 25.3 mph / 40.7 km/h 0.03 in / 0.8 cm Fog , Rain Light Rain
1:47 PM 50.0°F / 10.0°C 48.2°F / 9.0°C 94% 29.79 in / 1008.7 hPa 1.8 miles / 2.8 kilometers South 15.0 mph / 24.1 km/h 23.0 mph / 37.0 km/h 0.11 in / 2.8 cm Rain Light Rain
1:53 PM 50.0°F / 10.0°C 48.9°F / 9.4°C 96% 29.79 in / 1008.7 hPa 2.0 miles / 3.2 kilometers SSW 12.7 mph / 20.4 km/h 24.2 mph / 38.9 km/h 0.11 in / 2.8 cm   Overcast
2:03 PM 50.0°F / 10.0°C 48.2°F / 9.0°C 94% 29.78 in / 1008.4 hPa 1.5 miles / 2.4 kilometers South 17.3 mph / 27.8 km/h 29.9 mph / 48.2 km/h N/A   Overcast
2:11 PM 48.2°F / 9.0°C 48.2°F / 9.0°C 100% 29.77 in / 1008.0 hPa 1.0 miles / 1.6 kilometers South 16.1 mph / 25.9 km/h 26.5 mph / 42.6 km/h N/A   Overcast
2:18 PM 48.2°F / 9.0°C 48.2°F / 9.0°C 100% 29.77 in / 1008.0 hPa 0.8 miles / 1.2 kilometers South 20.7 mph / 33.3 km/h 33.4 mph / 53.7 km/h N/A   Overcast
2:53 PM 48.9°F / 9.4°C 48.9°F / 9.4°C 100% 29.76 in / 1007.7 hPa 0.5 miles / 0.8 kilometers South 15.0 mph / 24.1 km/h 28.8 mph / 46.3 km/h 0.01 in / 0.3 cm Fog , Rain Light Rain
3:08 PM 48.2°F / 9.0°C 48.2°F / 9.0°C 100% 29.75 in / 1007.3 hPa 1.0 miles / 1.6 kilometers South 11.5 mph / 18.5 km/h 27.6 mph / 44.4 km/h 0.00 in / 0.0 cm Rain Light Rain
3:17 PM 48.2°F / 9.0°C 48.2°F / 9.0°C 100% 29.74 in / 1007.0 hPa 0.5 miles / 0.8 kilometers South 18.4 mph / 29.6 km/h 27.6 mph / 44.4 km/h 0.03 in / 0.8 cm Fog , Rain Rain
3:53 PM 50.0°F / 10.0°C 48.9°F / 9.4°C 96% 29.73 in / 1006.8 hPa 0.5 miles / 0.8 kilometers South 15.0 mph / 24.1 km/h 28.8 mph / 46.3 km/h 0.11 in / 2.8 cm Fog , Rain Light Rain
4:18 PM 50.0°F / 10.0°C 48.2°F / 9.0°C 94% 29.73 in / 1006.7 hPa 1.5 miles / 2.4 kilometers SSW 16.1 mph / 25.9 km/h 33.4 mph / 53.7 km/h 0.04 in / 1.0 cm Rain Light Rain
4:35 PM 50.0°F / 10.0°C 48.2°F / 9.0°C 94% 29.72 in / 1006.3 hPa 1.0 miles / 1.6 kilometers SSW 18.4 mph / 29.6 km/h 33.4 mph / 53.7 km/h 0.04 in / 1.0 cm Rain Light Rain
4:53 PM 50.0°F / 10.0°C 48.9°F / 9.4°C 96% 29.72 in / 1006.3 hPa 1.2 miles / 2.0 kilometers SSW 19.6 mph / 31.5 km/h 35.7 mph / 57.4 km/h 0.05 in / 1.3 cm Rain Light Rain
5:29 PM 50.0°F / 10.0°C 48.2°F / 9.0°C 94% 29.70 in / 1005.6 hPa 0.8 miles / 1.2 kilometers SSW 19.6 mph / 31.5 km/h 35.7 mph / 57.4 km/h 0.02 in / 0.5 cm Rain Light Rain
5:53 PM 50.0°F / 10.0°C 48.9°F / 9.4°C 96% 29.70 in / 1005.5 hPa 0.5 miles / 0.8 kilometers South 23.0 mph / 37.0 km/h 34.5 mph / 55.6 km/h 0.06 in / 1.5 cm Fog Fog
6:53 PM 50.0°F / 10.0°C 48.9°F / 9.4°C 96% 29.70 in / 1005.5 hPa 1.0 miles / 1.6 kilometers South 18.4 mph / 29.6 km/h 38.0 mph / 61.1 km/h 0.08 in / 2.0 cm Rain Light Rain
7:30 PM 50.0°F / 10.0°C 48.2°F / 9.0°C 94% 29.68 in / 1005.0 hPa 1.5 miles / 2.4 kilometers SSW 20.7 mph / 33.3 km/h 36.8 mph / 59.3 km/h 0.03 in / 0.8 cm Rain Light Rain
7:40 PM 50.0°F / 10.0°C 48.2°F / 9.0°C 94% 29.68 in / 1005.0 hPa 1.0 miles / 1.6 kilometers SSW 20.7 mph / 33.3 km/h 39.1 mph / 63.0 km/h 0.03 in / 0.8 cm Rain Light Rain
7:53 PM 50.0°F / 10.0°C 48.9°F / 9.4°C 96% 29.69 in / 1005.2 hPa 0.8 miles / 1.2 kilometers SSW 24.2 mph / 38.9 km/h 38.0 mph / 61.1 km/h 0.04 in / 1.0 cm Rain Light Rain
8:12 PM 50.0°F / 10.0°C 48.2°F / 9.0°C 94% 29.68 in / 1005.0 hPa 1.0 miles / 1.6 kilometers SSW 20.7 mph / 33.3 km/h 32.2 mph / 51.9 km/h 0.03 in / 0.8 cm Rain Light Rain
8:22 PM 50.0°F / 10.0°C 48.2°F / 9.0°C 94% 29.68 in / 1005.0 hPa 0.8 miles / 1.2 kilometers SW 15.0 mph / 24.1 km/h 34.5 mph / 55.6 km/h 0.06 in / 1.5 cm Rain Rain
8:28 PM 50.0°F / 10.0°C 48.2°F / 9.0°C 94% 29.68 in / 1005.0 hPa 1.5 miles / 2.4 kilometers SSW 23.0 mph / 37.0 km/h 33.4 mph / 53.7 km/h 0.07 in / 1.8 cm Rain Light Rain
8:43 PM 50.0°F / 10.0°C 48.2°F / 9.0°C 94% 29.68 in / 1005.0 hPa 1.0 miles / 1.6 kilometers SW 18.4 mph / 29.6 km/h 31.1 mph / 50.0 km/h 0.08 in / 2.0 cm Rain Light Rain
8:53 PM 50.0°F / 10.0°C 48.9°F / 9.4°C 96% 29.68 in / 1005.1 hPa 0.8 miles / 1.2 kilometers SSW 16.1 mph / 25.9 km/h 29.9 mph / 48.2 km/h 0.10 in / 2.5 cm Rain Light Rain
9:07 PM 48.2°F / 9.0°C 48.2°F / 9.0°C 100% 29.68 in / 1005.0 hPa 1.0 miles / 1.6 kilometers SW 24.2 mph / 38.9 km/h 32.2 mph / 51.9 km/h 0.02 in / 0.5 cm Rain Light Rain
9:38 PM 48.2°F / 9.0°C 46.4°F / 8.0°C 93% 29.69 in / 1005.3 hPa 1.8 miles / 2.8 kilometers WSW 25.3 mph / 40.7 km/h 34.5 mph / 55.6 km/h 0.08 in / 2.0 cm Rain Light Rain
9:49 PM 48.2°F / 9.0°C 46.4°F / 8.0°C 93% 29.70 in / 1005.6 hPa 2.0 miles / 3.2 kilometers WSW 19.6 mph / 31.5 km/h 26.5 mph / 42.6 km/h N/A Rain Light Rain
9:53 PM 46.9°F / 8.3°C 46.0°F / 7.8°C 97% 29.70 in / 1005.8 hPa 2.0 miles / 3.2 kilometers WSW 19.6 mph / 31.5 km/h 26.5 mph / 42.6 km/h 0.09 in / 2.3 cm Rain Light Rain
10:22 PM 46.4°F / 8.0°C 44.6°F / 7.0°C 93% 29.70 in / 1005.6 hPa 2.5 miles / 4.0 kilometers WSW 15.0 mph / 24.1 km/h 24.2 mph / 38.9 km/h 0.02 in / 0.5 cm Rain Light Rain
10:53 PM 46.9°F / 8.3°C 45.0°F / 7.2°C 93% 29.71 in / 1006.1 hPa 2.5 miles / 4.0 kilometers WSW 15.0 mph / 24.1 km/h 24.2 mph / 38.9 km/h 0.05 in / 1.3 cm Rain Light Rain
10:55 PM 46.4°F / 8.0°C 44.6°F / 7.0°C 93% 29.71 in / 1006.0 hPa 2.5 miles / 4.0 kilometers SW 10.4 mph / 16.7 km/h 24.2 mph / 38.9 km/h 0.00 in / 0.0 cm Rain Light Rain
11:30 PM 46.4°F / 8.0°C 44.6°F / 7.0°C 93% 29.72 in / 1006.3 hPa 3.0 miles / 4.8 kilometers WSW 11.5 mph / 18.5 km/h 23.0 mph / 37.0 km/h 0.04 in / 1.0 cm Rain Light Rain
11:42 PM 46.4°F / 8.0°C 44.6°F / 7.0°C 93% 29.73 in / 1006.7 hPa 2.5 miles / 4.0 kilometers West 13.8 mph / 22.2 km/h - 0.04 in / 1.0 cm Rain Light Rain
11:46 PM 44.6°F / 7.0°C 44.6°F / 7.0°C 100% 29.73 in / 1006.7 hPa 1.8 miles / 2.8 kilometers West 12.7 mph / 20.4 km/h - 0.06 in / 1.5 cm Rain Rain
11:53 PM 45.0°F / 7.2°C 43.0°F / 6.1°C 93% 29.73 in / 1006.6 hPa 1.8 miles / 2.8 kilometers West 10.4 mph / 16.7 km/h 21.9 mph / 35.2 km/h 0.08 in / 2.0 cm Rain Light Rain
11:58 PM 44.6°F / 7.0°C 42.8°F / 6.0°C 93% 29.72 in / 1006.3 hPa 3.0 miles / 4.8 kilometers West 11.5 mph / 18.5 km/h 21.9 mph / 35.2 km/h 0.00 in / 0.0 cm Rain Light Rain
Moon Phase
Jan. 08 Jan. 11 Jan. 18 Jan. 26 Feb. 03
Sunrise:08:06 AM (PST) Moon Rise:04:44 AM (PST)1/8
Sunset:04:44 PM (PST) Moon Set:01:52 PM (PST)1/8

Copyright © 2014 The Weather Underground, Inc.